Richmond, KY

5:42 PM EDT on May 22, 2018 (GMT -0400)
Richmond

Weather History for KI39 - October, 2012

Change the Weather History Date:

Sunday, October 7, 2012

  Actual Average (KLOZ) Record (KLOZ)
Temperature  
Mean Temperature 48 °F -  
Max Temperature 55 °F 66 °F 92 °F (2007)
Min Temperature 41 °F 44 °F 29 °F (1964)
Degree Days  
Heating Degree Days 17    
Moisture  
Dew Point 38 °F    
Average Humidity 68    
Maximum Humidity 93    
Minimum Humidity 44    
Precipitation  
Precipitation 0.00 in - - ()
Sea Level Pressure  
Sea Level Pressure 30.14 in    
Wind  
Wind Speed 2 mph (NW)    
Max Wind Speed 9 mph    
Max Gust Speed -    
Visibility 10 miles    
Events      
Averages and records for this station are not official NWS values.
T = Trace of Precipitation, MM = Missing Value Source: NWS Daily Summary

Daily Weather History Graph

Daily Weather History Graph

Search for Another Location

Airport or City:

Astronomy

Oct. 07, 2012 Rise Set
Actual Time 7:38 AM EDT 7:10 PM EDT
Civil Twilight 7:12 AM EDT 7:36 PM EDT
Nautical Twilight 6:42 AM EDT 8:07 PM EDT
Astronomical Twilight 6:11 AM EDT 8:37 PM EDT
Moon No Moon Rise 2:10 PM EDT (10/7)
Length of Visible Light 12h 24m
Length of Day
11h 32m
Waning Gibbous, 56% of the Moon is Illuminated
Oct 7
Waning Gibbous
Oct 8
Last Quarter
Oct 15
New
Oct 21
First Quarter
Oct 29
Full

Hourly Weather History & Observations

Time (EDT) Temp. Windchill Dew Point Humidity Pressure Visibility Wind Dir Wind Speed Gust Speed Precip Events Conditions
12:15 AM 48.2 °F - 41.0 °F 76% 30.12 in 10.0 mi Calm Calm - N/A   Overcast
12:35 AM 48.2 °F - 41.0 °F 76% 30.12 in 10.0 mi Calm Calm - N/A   Overcast
1:15 AM 48.2 °F - 39.2 °F 71% 30.11 in 10.0 mi Calm Calm - N/A   Overcast
1:35 AM 48.2 °F - 39.2 °F 71% 30.10 in 10.0 mi Calm Calm - N/A   Overcast
1:55 AM 48.2 °F - 39.2 °F 71% 30.10 in 10.0 mi Calm Calm - N/A   Overcast
2:15 AM 48.2 °F - 39.2 °F 71% 30.10 in 10.0 mi Calm Calm - N/A   Overcast
2:35 AM 48.2 °F - 37.4 °F 66% 30.10 in 10.0 mi Calm Calm - N/A   Overcast
2:55 AM 48.2 °F - 37.4 °F 66% 30.10 in 10.0 mi Calm Calm - N/A   Overcast
3:15 AM 46.4 °F 45.2 °F 39.2 °F 76% 30.10 in 10.0 mi NNW 3.5 mph - N/A   Overcast
3:35 AM 48.2 °F - 39.2 °F 71% 30.10 in 10.0 mi Calm Calm - N/A   Overcast
3:55 AM 48.2 °F - 39.2 °F 71% 30.10 in 10.0 mi Calm Calm - N/A   Overcast
4:15 AM 46.4 °F - 39.2 °F 76% 30.10 in 10.0 mi Calm Calm - N/A   Overcast
4:55 AM 46.4 °F 45.2 °F 39.2 °F 76% 30.09 in 10.0 mi North 3.5 mph - N/A   Overcast
5:15 AM 46.4 °F 45.2 °F 39.2 °F 76% 30.10 in 10.0 mi NW 3.5 mph - N/A   Overcast
5:35 AM 46.4 °F - 39.2 °F 76% 30.09 in 10.0 mi Calm Calm - N/A   Overcast
5:55 AM 46.4 °F - 39.2 °F 76% 30.09 in 10.0 mi Calm Calm - N/A   Overcast
6:15 AM 46.4 °F - 39.2 °F 76% 30.09 in 10.0 mi Calm Calm - N/A   Overcast
6:35 AM 46.4 °F 45.2 °F 39.2 °F 76% 30.10 in 10.0 mi NW 3.5 mph - N/A   Overcast
6:55 AM 46.4 °F 45.2 °F 39.2 °F 76% 30.10 in 10.0 mi NW 3.5 mph - N/A   Overcast
7:15 AM 46.4 °F 44.3 °F 39.2 °F 76% 30.11 in 10.0 mi NW 4.6 mph - N/A   Overcast
7:35 AM 46.4 °F 45.2 °F 39.2 °F 76% 30.11 in 10.0 mi NW 3.5 mph - N/A   Overcast
7:55 AM 46.4 °F 45.2 °F 39.2 °F 76% 30.11 in 10.0 mi NW 3.5 mph - N/A   Overcast
8:15 AM 46.4 °F - 39.2 °F 76% 30.11 in 10.0 mi Calm Calm - N/A   Overcast
8:35 AM 46.4 °F 44.3 °F 39.2 °F 76% 30.12 in 10.0 mi NW 4.6 mph - N/A   Overcast
8:55 AM 46.4 °F 44.3 °F 39.2 °F 76% 30.12 in 10.0 mi NNW 4.6 mph - N/A   Overcast
9:15 AM 46.4 °F 44.3 °F 39.2 °F 76% 30.13 in 10.0 mi NNW 4.6 mph - N/A   Overcast
9:35 AM 46.4 °F 45.2 °F 39.2 °F 76% 30.13 in 10.0 mi NW 3.5 mph - N/A   Overcast
9:55 AM 46.4 °F 43.5 °F 39.2 °F 76% 30.14 in 10.0 mi NNW 5.8 mph - N/A   Overcast
10:15 AM 46.4 °F 42.4 °F 39.2 °F 76% 30.14 in 10.0 mi NW 8.1 mph - N/A   Overcast
10:35 AM 46.4 °F 41.9 °F 39.2 °F 76% 30.16 in 10.0 mi NW 9.2 mph - N/A   Overcast
10:55 AM 46.4 °F 42.9 °F 39.2 °F 76% 30.16 in 10.0 mi NW 6.9 mph - N/A   Overcast
11:15 AM 46.4 °F 43.5 °F 41.0 °F 81% 30.16 in 10.0 mi NW 5.8 mph - N/A   Overcast
11:35 AM 46.4 °F 42.9 °F 41.0 °F 81% 30.17 in 10.0 mi WNW 6.9 mph - N/A   Overcast
11:55 AM 48.2 °F - 41.0 °F 76% 30.18 in 10.0 mi WNW 5.8 mph - N/A   Overcast
12:15 PM 48.2 °F - 39.2 °F 71% 30.18 in 10.0 mi NW 9.2 mph - N/A   Overcast
12:35 PM 48.2 °F - 39.2 °F 71% 30.17 in 10.0 mi NW 9.2 mph - N/A   Overcast
12:55 PM 50.0 °F - 37.4 °F 62% 30.18 in 10.0 mi NW 8.1 mph - N/A   Overcast
1:15 PM 50.0 °F - 39.2 °F 66% 30.18 in 10.0 mi WNW 9.2 mph - N/A   Overcast
1:35 PM 51.8 °F - 37.4 °F 58% 30.17 in 10.0 mi WNW 5.8 mph - N/A   Mostly Cloudy
1:55 PM 51.8 °F - 35.6 °F 54% 30.15 in 10.0 mi SSW 4.6 mph - N/A   Mostly Cloudy
2:15 PM 51.8 °F - 37.4 °F 58% 30.16 in 10.0 mi Calm Calm - N/A   Mostly Cloudy
2:35 PM 53.6 °F - 35.6 °F 51% 30.15 in 10.0 mi WSW 4.6 mph - N/A   Mostly Cloudy
2:55 PM 53.6 °F - 35.6 °F 51% 30.15 in 10.0 mi West 4.6 mph - N/A   Mostly Cloudy
3:15 PM 53.6 °F - 35.6 °F 51% 30.14 in 10.0 mi West 4.6 mph - N/A   Overcast
3:35 PM 55.4 °F - 35.6 °F 47% 30.14 in 10.0 mi West 8.1 mph - N/A   Overcast
3:55 PM 55.4 °F - 35.6 °F 47% 30.14 in 10.0 mi West 5.8 mph - N/A   Mostly Cloudy
4:15 PM 53.6 °F - 33.8 °F 47% 30.14 in 10.0 mi WNW 4.6 mph - N/A   Mostly Cloudy
4:35 PM 55.4 °F - 33.8 °F 44% 30.14 in 10.0 mi WSW 3.5 mph - N/A   Mostly Cloudy
4:55 PM 53.6 °F - 33.8 °F 47% 30.14 in 10.0 mi WNW 6.9 mph - N/A   Mostly Cloudy
5:15 PM 55.4 °F - 33.8 °F 44% 30.14 in 10.0 mi WNW 6.9 mph - N/A   Scattered Clouds
5:35 PM 55.4 °F - 33.8 °F 44% 30.14 in 10.0 mi Calm Calm - N/A   Scattered Clouds
5:55 PM 53.6 °F - 33.8 °F 47% 30.13 in 10.0 mi West 5.8 mph - N/A   Mostly Cloudy
6:15 PM 53.6 °F - 33.8 °F 47% 30.14 in 10.0 mi NW 5.8 mph - N/A   Overcast
6:35 PM 53.6 °F - 33.8 °F 47% 30.14 in 10.0 mi NW 3.5 mph - N/A   Mostly Cloudy
6:55 PM 51.8 °F - 35.6 °F 54% 30.15 in 10.0 mi WNW 3.5 mph - N/A   Mostly Cloudy
7:15 PM 50.0 °F - 35.6 °F 58% 30.15 in 10.0 mi Calm Calm - N/A   Scattered Clouds
7:35 PM 50.0 °F - 35.6 °F 58% 30.15 in 10.0 mi Calm Calm - N/A   Clear
8:15 PM 48.2 °F - 35.6 °F 62% 30.15 in 10.0 mi Calm Calm - N/A   Clear
8:35 PM 48.2 °F - 35.6 °F 62% 30.16 in 10.0 mi Calm Calm - N/A   Clear
8:55 PM 46.4 °F - 35.6 °F 66% 30.17 in 10.0 mi Calm Calm - N/A   Clear
9:15 PM 42.8 °F 41.1 °F 35.6 °F 76% 30.17 in 10.0 mi East 3.5 mph - N/A   Clear
9:35 PM 44.6 °F - 37.4 °F 76% 30.17 in 10.0 mi Calm Calm - N/A   Clear
9:55 PM 42.8 °F - 37.4 °F 81% 30.18 in 10.0 mi Calm Calm - N/A   Clear
10:15 PM 44.6 °F - 37.4 °F 76% 30.18 in 10.0 mi Calm Calm - N/A   Clear
10:35 PM 41.0 °F 39.0 °F 37.4 °F 87% 30.18 in 10.0 mi ESE 3.5 mph - N/A   Clear
10:55 PM 42.8 °F 41.1 °F 37.4 °F 81% 30.18 in 10.0 mi SE 3.5 mph - N/A   Clear
11:15 PM 42.8 °F - 37.4 °F 81% 30.17 in 10.0 mi Calm Calm - N/A   Clear
11:35 PM 44.6 °F - 37.4 °F 76% 30.18 in 10.0 mi Calm Calm - N/A   Clear
11:55 PM 41.0 °F 39.0 °F 39.2 °F 93% 30.17 in 10.0 mi East 3.5 mph - N/A   Clear